Location: Devore Heights
(34.2372°N, 117.4156°W)
Time: 02:47:42
(UTC+00:00)

A-11 Canister half - Pass Details

Date: 19 September 2024
Orbit: 1515 x 1684 km, 47.2° (Epoch: 06 October)

Event Time Altitude Azimuth Distance (km) Brightness Sun altitude
Rises 03:10:36 0° 272° (W) 4,735 13.2 -17.1°
Reaches altitude 10° 03:14:00 10° 279° (W) 3,730 12.3 -17.8°
Maximum altitude 03:22:40 40° 347° (NNW) 2,111 9.9 -19.5°
Drops below altitude 10° 03:31:15 10° 55° (NE) 3,676 10.6 -21.2°
Enters shadow 03:31:16 10° 55° (NE) 3,685 10.6 -21.2°
